WA3AFS Weather Reports


Display with metric or nautical units.
time (UTC)temp
F
wind
direction
speed
MPH
gust
MPH
rain 1hr
in
rain 24hr
in
rain mn
in
humidity
%
barometer
mb
20260510115742 52 127 1.0 3.0 0.00 0.27 0.00 93 1010.6
20260510115235 52 97 1.0 3.0 0.00 0.27 0.00 93 1010.6
20260510114807 52 131 1.0 3.0 0.00 0.27 0.00 93 1010.5
20260510114255 52 152 1.0 3.0 0.00 0.27 0.00 93 1010.4
20260510113729 52 165 1.0 3.0 0.00 0.27 0.00 94 1010.5
20260510113303 52 188 1.0 3.0 0.00 0.27 0.00 94 1010.5
20260510112756 51 162 1.0 2.0 0.00 0.27 0.00 94 1010.4
20260510112246 51 162 1.0 2.0 0.00 0.27 0.00 94 1010.2
20260510111738 51 162 1.0 2.0 0.00 0.27 0.00 94 1010.2
20260510111232 51 185 0.0 2.0 0.00 0.28 0.00 94 1010.3
20260510110746 51 185 0.0 2.0 0.00 0.28 0.00 94 1010.2
20260510110240 51 177 1.0 2.0 0.00 0.28 0.00 94 1010.3
20260510105734 51 199 2.0 4.0 0.00 0.28 0.00 94 1010.2
20260510105227 51 203 1.0 4.0 0.00 0.28 0.00 94 1010.2
20260510104742 51 189 2.0 3.0 0.00 0.28 0.00 95 1010.2
20260510104236 51 188 2.0 3.0 0.00 0.28 0.00 94 1010.1
20260510103729 50 193 1.0 3.0 0.00 0.28 0.00 94 1010.1
20260510103241 50 187 1.0 2.0 0.00 0.28 0.00 94 1010.1
20260510102733 50 125 1.0 2.0 0.00 0.28 0.00 94 1009.9
20260510102227 50 110 0.0 1.0 0.00 0.28 0.00 94 1009.8
20260510101738 50 110 0.0 1.0 0.00 0.28 0.00 94 1009.6
20260510101230 50 142 0.0 1.0 0.00 0.29 0.00 94 1009.6
20260510100803 50 142 0.0 2.0 0.00 0.29 0.00 94 1009.4
20260510100232 50 142 1.0 2.0 0.00 0.29 0.00 94 1009.3
20260510095745 50 152 1.0 2.0 0.00 0.29 0.00 94 1009.4
20260510095237 50 156 1.0 2.0 0.00 0.29 0.00 94 1009.2
20260510094729 50 137 1.0 3.0 0.00 0.29 0.00 94 1009.1
20260510094241 50 147 2.0 3.0 0.00 0.29 0.00 94 1009.1
20260510093735 50 154 1.0 2.0 0.00 0.29 0.00 95 1009.1
20260510093228 50 141 1.0 2.0 0.00 0.29 0.00 95 1009.0
20260510092736 50 209 1.0 2.0 0.00 0.29 0.00 95 1009.0
20260510092230 50 184 1.0 2.0 0.00 0.29 0.00 95 1008.9
20260510091741 51 231 1.0 3.0 0.00 0.29 0.00 95 1008.9
20260510091236 51 203 1.0 3.0 0.00 0.31 0.00 95 1008.9
20260510090730 51 137 1.0 2.0 0.00 0.31 0.00 95 1008.8
20260510090241 51 151 1.0 3.0 0.00 0.31 0.00 95 1008.8
20260510085732 50 160 2.0 3.0 0.00 0.31 0.00 95 1008.7
20260510085243 50 193 2.0 3.0 0.00 0.31 0.00 95 1008.7
20260510084737 50 150 1.0 4.0 0.00 0.31 0.00 95 1008.7
20260510084231 50 184 1.0 4.0 0.00 0.31 0.00 95 1008.9
20260510083744 50 181 1.0 3.0 0.00 0.31 0.00 95 1008.9
20260510083236 50 201 2.0 3.0 0.00 0.31 0.00 95 1008.9
20260510082746 50 190 1.0 3.0 0.00 0.31 0.00 95 1008.9
20260510082238 50 162 2.0 3.0 0.00 0.31 0.00 94 1009.0
20260510081731 51 203 2.0 3.0 0.00 0.31 0.00 95 1008.9
20260510081243 51 185 1.0 2.0 0.00 0.31 0.00 95 1008.7
20260510080735 51 141 1.0 2.0 0.00 0.31 0.00 95 1008.7
20260510080246 51 141 0.0 2.0 0.00 0.31 0.00 95 1008.9
20260510075739 51 138 0.0 2.0 0.00 0.31 0.00 95 1009.0
20260510075231 51 160 1.0 2.0 0.00 0.31 0.00 95 1009.1
20260510074742 51 278 0.0 2.0 0.00 0.31 0.00 95 1009.1
20260510074232 51 227 1.0 3.0 0.00 0.31 0.00 95 1008.7
20260510073744 51 258 1.0 3.0 0.00 0.31 0.00 94 1008.9
20260510073235 51 228 0.0 2.0 0.00 0.31 0.00 94 1008.8
20260510072739 51 241 1.0 2.0 0.00 0.31 0.00 94 1008.9
20260510072232 51 188 1.0 2.0 0.00 0.31 0.00 94 1009.2
20260510071804 51 206 1.0 3.0 0.00 0.31 0.00 94 1009.3
20260510071254 51 197 1.0 3.0 0.00 0.31 0.00 94 1009.3
20260510070746 51 200 1.0 3.0 0.00 0.31 0.00 94 1009.3
20260510070238 51 221 1.0 2.0 0.00 0.31 0.00 94 1009.3
20260510065730 51 310 0.0 2.0 0.00 0.31 0.00 94 1009.4
20260510065241 51 84 0.0 2.0 0.00 0.31 0.00 94 1009.5
20260510064733 51 167 0.0 2.0 0.00 0.31 0.00 94 1009.5
20260510064246 51 167 1.0 2.0 0.00 0.31 0.00 94 1009.6
20260510063737 51 166 2.0 3.0 0.00 0.31 0.00 94 1009.7
20260510063231 51 174 1.0 3.0 0.00 0.31 0.00 93 1009.6
20260510062743 51 166 2.0 3.0 0.00 0.31 0.00 93 1009.5
20260510062256 51 166 1.0 3.0 0.00 0.31 0.00 93 1009.5
20260510061743 51 189 0.0 1.0 0.00 0.31 0.00 93 1009.3
20260510061234 52 190 0.0 2.0 0.00 0.31 0.00 93 1009.4
20260510060743 52 189 1.0 2.0 0.00 0.31 0.00 93 1009.5
20260510060235 52 181 1.0 2.0 0.00 0.31 0.00 93 1009.4
20260510055727 52 181 1.0 2.0 0.00 0.31 0.00 93 1009.3
20260510055239 52 185 1.0 2.0 0.00 0.31 0.00 93 1009.2
20260510054729 52 209 1.0 2.0 0.00 0.31 0.00 93 1009.3
20260510054240 52 194 1.0 3.0 0.00 0.31 0.00 93 1009.0
20260510053734 52 178 2.0 3.0 0.00 0.31 0.00 93 1009.1
20260510053246 52 172 1.0 3.0 0.00 0.31 0.00 93 1009.2
20260510052738 52 187 1.0 3.0 0.00 0.31 0.00 93 1009.2
20260510052232 52 176 2.0 3.0 0.00 0.31 0.00 93 1009.1
20260510051745 52 230 2.0 3.0 0.00 0.31 0.00 92 1009.2
20260510051257 52 196 1.0 4.0 0.00 0.31 0.00 92 1009.2
20260510050729 52 232 2.0 5.0 0.00 0.31 0.00 93 1009.0
20260510050240 52 200 2.0 3.0 0.00 0.31 0.00 93 1009.1
20260510045732 52 212 1.0 2.0 0.00 0.31 0.00 93 1009.0
20260510045243 52 191 1.0 2.0 0.00 0.31 0.00 93 1009.0
20260510044736 52 194 1.0 2.0 0.00 0.31 0.00 93 1009.1
20260510044307 52 189 1.0 3.0 0.00 0.31 0.00 93 1009.1
20260510043738 52 131 1.0 3.0 0.00 0.31 0.00 93 1009.2
20260510043229 52 163 2.0 3.0 0.00 0.31 0.00 93 1009.2
20260510042801 52 156 1.0 4.0 0.00 0.31 0.00 93 1009.1
20260510042234 52 193 1.0 4.0 0.00 0.31 0.00 92 1009.1
20260510041801 52 181 1.0 3.0 0.00 0.31 0.00 92 1009.2
20260510041234 52 237 1.0 4.0 0.00 0.31 0.31 92 1009.1
20260510040745 52 150 2.0 4.0 0.00 0.31 0.31 92 1009.1
20260510040237 52 201 1.0 3.0 0.00 0.31 0.31 92 1008.9
20260510035747 52 168 1.0 4.0 0.00 0.31 0.31 92 1009.1
20260510035240 52 152 2.0 4.0 0.00 0.31 0.31 92 1009.0
20260510034732 52 165 2.0 6.0 0.00 0.31 0.31 93 1009.1
20260510034245 52 179 1.0 2.0 0.00 0.31 0.31 93 1009.1
20260510033738 52 221 1.0 5.0 0.00 0.31 0.31 93 1009.1
20260510033229 52 166 2.0 5.0 0.00 0.31 0.31 93 1009.1
20260510032741 52 187 1.0 2.0 0.00 0.31 0.31 93 1009.2
20260510032235 52 168 1.0 3.0 0.00 0.31 0.31 93 1009.1
20260510031747 52 191 1.0 3.0 0.00 0.31 0.31 93 1009.1
20260510031237 52 129 1.0 3.0 0.00 0.31 0.31 94 1009.0
20260510030746 52 179 1.0 3.0 0.00 0.31 0.31 94 1009.1
20260510030236 52 171 1.0 4.0 0.00 0.31 0.31 94 1009.1
20260510025729 52 189 1.0 4.0 0.00 0.31 0.31 94 1009.1
20260510025239 52 133 1.0 3.0 0.00 0.31 0.31 94 1009.1
20260510024729 52 215 0.0 3.0 0.00 0.31 0.31 94 1009.2
20260510024242 52 176 0.0 0.0 0.00 0.31 0.31 94 1009.1
20260510023754 52 191 0.0 0.0 0.00 0.31 0.31 94 1009.1
20260510023307 52 175 0.0 0.0 0.00 0.31 0.31 94 1009.4
20260510022736 52 192 0.0 0.0 0.00 0.31 0.31 94 1009.4
20260510022227 52 192 0.0 0.0 0.00 0.31 0.31 94 1009.4
20260510021734 52 189 0.0 0.0 0.00 0.31 0.31 94 1009.3
20260510021246 52 179 0.0 0.0 0.00 0.31 0.31 94 1009.2
20260510020759 52 188 0.0 0.0 0.00 0.31 0.31 94 1009.2
20260510020232 52 185 0.0 0.0 0.00 0.31 0.31 94 1009.1
20260510015744 52 194 0.0 0.0 0.00 0.31 0.31 94 1009.3
20260510015236 52 193 0.0 0.0 0.00 0.31 0.31 94 1009.1
20260510014730 52 220 0.0 0.0 0.00 0.31 0.31 94 1009.4
20260510014243 52 179 0.0 0.0 0.00 0.31 0.31 94 1009.4
20260510013736 52 201 0.0 0.0 0.00 0.31 0.31 94 1009.3
20260510013229 52 201 0.0 0.0 0.00 0.31 0.31 94 1009.4
20260510012801 52 201 0.0 0.0 0.00 0.31 0.31 94 1009.1
20260510012232 52 201 0.0 0.0 0.00 0.31 0.31 94 1009.2
20260510011744 52 201 0.0 0.0 0.00 0.31 0.31 94 1009.1
20260510011236 52 201 0.0 0.0 0.00 0.31 0.31 94 1009.1
20260510010729 52 193 0.0 0.0 0.00 0.31 0.31 94 1009.1
20260510010241 52 212 0.0 0.0 0.00 0.31 0.31 94 1009.0
20260510005735 52 212 0.0 0.0 0.00 0.31 0.31 94 1009.1
20260510005228 52 193 0.0 0.0 0.00 0.31 0.31 94 1008.9
20260510004742 52 192 0.0 0.0 0.00 0.31 0.31 93 1008.9
20260510004255 52 203 0.0 0.0 0.00 0.31 0.31 93 1009.0
20260510003745 52 203 0.0 0.0 0.00 0.31 0.31 93 1008.9
20260510003255 52 203 0.0 0.0 0.00 0.31 0.31 93 1008.8
20260510002741 52 203 0.0 0.0 0.00 0.31 0.31 93 1008.9
20260510002232 53 203 0.0 0.0 0.00 0.31 0.31 93 1008.9
20260510001807 53 203 0.0 0.0 0.00 0.31 0.31 93 1008.8
20260510001239 53 203 0.0 0.0 0.00 0.31 0.31 92 1008.7
20260510000731 53 203 0.0 0.0 0.00 0.31 0.31 92 1008.5
20260510000241 53 203 0.0 0.0 0.00 0.31 0.31 92 1008.4
20260509235753 53 179 0.0 0.0 0.00 0.31 0.31 92 1008.3
20260509235244 53 179 0.0 1.0 0.00 0.31 0.31 92 1008.3
20260509234736 53 184 0.0 2.0 0.00 0.31 0.31 92 1008.2
20260509234229 53 184 0.0 2.0 0.00 0.31 0.31 92 1008.1
20260509233741 53 191 1.0 2.0 0.00 0.31 0.31 91 1008.1
20260509233233 53 157 1.0 2.0 0.00 0.31 0.31 91 1008.1
20260509232803 53 157 1.0 2.0 0.00 0.31 0.31 91 1008.0
20260509232234 53 196 0.0 2.0 0.00 0.31 0.31 91 1007.9
20260509231806 53 196 0.0 2.0 0.00 0.31 0.31 91 1007.7
20260509231237 53 196 0.0 2.0 0.00 0.31 0.31 91 1007.8
20260509230730 54 196 0.0 2.0 0.00 0.31 0.31 91 1007.7
20260509230241 54 189 1.0 3.0 0.00 0.31 0.31 91 1007.8
20260509225751 54 186 1.0 3.0 0.00 0.31 0.31 91 1007.7
20260509225238 54 161 1.0 3.0 0.00 0.31 0.31 91 1007.7
20260509224730 54 166 2.0 4.0 0.00 0.31 0.31 91 1007.6
20260509224242 54 214 2.0 4.0 0.00 0.31 0.31 90 1007.7
20260509223733 54 173 2.0 4.0 0.00 0.31 0.31 91 1007.7
20260509223245 54 133 2.0 4.0 0.00 0.31 0.31 90 1007.9
20260509222738 54 177 1.0 3.0 0.00 0.31 0.31 91 1007.9
20260509222228 54 158 1.0 3.0 0.00 0.31 0.31 91 1007.8
20260509221739 54 161 0.0 2.0 0.00 0.31 0.31 91 1008.0
20260509221252 54 158 1.0 2.0 0.00 0.31 0.31 92 1008.0
20260509220743 54 131 1.0 2.0 0.00 0.31 0.31 92 1007.9
20260509220235 54 194 1.0 3.0 0.00 0.31 0.31 92 1008.0
20260509215808 53 148 1.0 3.0 0.00 0.31 0.31 92 1007.9
20260509215239 53 216 1.0 3.0 0.00 0.31 0.31 93 1008.1
20260509214731 53 237 1.0 3.0 0.00 0.31 0.31 93 1008.1
20260509214304 53 221 1.0 3.0 0.00 0.31 0.31 93 1008.3
20260509213737 53 220 1.0 2.0 0.00 0.31 0.31 94 1008.3
20260509213250 53 165 0.0 3.0 0.00 0.31 0.31 94 1008.3
20260509212740 53 152 0.0 3.0 0.00 0.31 0.31 94 1008.3
20260509212233 53 168 1.0 3.0 0.00 0.31 0.31 94 1008.2
20260509211744 53 194 1.0 2.0 0.00 0.31 0.31 94 1008.2
20260509211235 53 132 1.0 3.0 0.00 0.31 0.31 94 1008.2
20260509210743 53 179 1.0 3.0 0.00 0.31 0.31 94 1008.3
20260509210236 53 125 2.0 3.0 0.00 0.31 0.31 95 1008.2
20260509205730 53 191 1.0 4.0 0.00 0.31 0.31 95 1008.3
20260509205242 52 208 1.0 4.0 0.00 0.31 0.31 95 1008.3
20260509204735 52 169 1.0 2.0 0.00 0.31 0.31 95 1008.4
20260509204246 52 161 1.0 2.0 0.00 0.31 0.31 95 1008.5
20260509203739 52 189 1.0 3.0 0.00 0.31 0.31 95 1008.6
20260509203231 52 160 1.0 3.0 0.00 0.31 0.31 95 1008.6
20260509202743 52 249 2.0 3.0 0.00 0.31 0.31 95 1008.6
20260509202236 52 189 1.0 3.0 0.00 0.31 0.31 96 1008.8
20260509201729 52 170 1.0 2.0 0.00 0.31 0.31 96 1008.7
20260509201242 52 204 1.0 4.0 0.00 0.31 0.31 96 1008.7
20260509200755 51 174 2.0 4.0 0.00 0.31 0.31 96 1008.9
20260509200246 51 191 0.0 0.0 0.00 0.31 0.31 96 1008.9
20260509195740 51 187 0.0 0.0 0.00 0.31 0.31 96 1008.9
20260509195253 51 191 0.0 0.0 0.00 0.31 0.31 96 1009.0
20260509194744 51 137 0.0 0.0 0.00 0.31 0.31 96 1009.1
20260509194237 50 131 0.0 1.0 0.00 0.31 0.31 96 1009.1
20260509193749 50 157 0.0 1.0 0.00 0.31 0.31 95 1009.2
20260509193242 50 146 0.0 1.0 0.00 0.31 0.31 95 1009.2
20260509192736 50 133 0.0 2.0 0.01 0.31 0.31 96 1009.3
20260509192250 50 205 0.0 3.0 0.01 0.31 0.31 95 1009.3
20260509191740 49 187 1.0 3.0 0.01 0.31 0.31 95 1009.4
20260509191233 49 137 1.0 3.0 0.01 0.31 0.31 95 1009.4
20260509190741 49 170 1.0 3.0 0.01 0.31 0.31 95 1009.5
20260509190232 49 191 1.0 2.0 0.01 0.31 0.31 95 1009.6
20260509185743 49 156 0.0 2.0 0.01 0.31 0.31 95 1009.6
20260509185234 49 165 1.0 2.0 0.01 0.31 0.31 95 1009.8
20260509184727 49 174 1.0 2.0 0.01 0.31 0.31 95 1009.9
20260509184258 49 181 1.0 3.0 0.01 0.31 0.31 95 1009.8
20260509183808 49 208 0.0 2.0 0.02 0.31 0.31 95 1009.9
20260509183241 49 153 1.0 3.0 0.02 0.31 0.31 95 1009.8
20260509182733 49 164 1.0 3.0 0.01 0.30 0.30 95 1009.8
20260509182239 48 185 1.0 2.0 0.01 0.30 0.30 95 1009.7
20260509181732 48 189 1.0 2.0 0.01 0.30 0.30 95 1009.7
20260509181244 48 178 1.0 2.0 0.01 0.30 0.30 95 1009.8
20260509180736 48 201 0.0 0.0 0.01 0.30 0.30 95 1010.0
20260509180228 48 201 0.0 1.0 0.01 0.30 0.30 95 1009.9
20260509175739 48 196 0.0 2.0 0.01 0.30 0.30 95 1009.9
20260509175250 48 196 1.0 2.0 0.02 0.30 0.30 95 1009.9
20260509174802 48 196 1.0 2.0 0.02 0.30 0.30 95 1009.9
20260509174232 48 188 1.0 2.0 0.02 0.30 0.30 95 1010.0
20260509173803 47 196 1.0 3.0 0.01 0.29 0.29 95 1010.1
20260509173236 47 178 1.0 2.0 0.01 0.29 0.29 95 1010.1
20260509172730 47 196 1.0 3.0 0.01 0.29 0.29 95 1010.1
20260509172306 47 170 2.0 3.0 0.02 0.29 0.29 95 1010.2
20260509171733 47 210 1.0 3.0 0.02 0.29 0.29 95 1010.2
20260509171306 47 183 1.0 3.0 0.02 0.29 0.29 95 1010.3
20260509170738 47 179 1.0 3.0 0.02 0.29 0.29 95 1010.5
20260509170231 47 182 2.0 3.0 0.02 0.29 0.29 95 1010.4
20260509165742 47 179 2.0 3.0 0.02 0.29 0.29 95 1010.4
20260509165235 47 120 2.0 4.0 0.01 0.28 0.28 95 1010.5
20260509164730 47 192 1.0 3.0 0.02 0.28 0.28 95 1010.5
20260509164239 47 210 1.0 3.0 0.02 0.28 0.28 95 1010.5
20260509163733 47 189 1.0 3.0 0.02 0.28 0.28 95 1010.5
20260509163228 47 196 0.0 2.0 0.02 0.28 0.28 95 1010.7
20260509162738 47 186 1.0 3.0 0.02 0.28 0.28 95 1010.6
20260509162247 47 191 1.0 3.0 0.02 0.27 0.27 95 1010.7
20260509161737 47 239 1.0 3.0 0.02 0.27 0.27 95 1010.7
20260509161247 47 197 0.0 3.0 0.03 0.27 0.27 95 1010.8
20260509160739 47 146 1.0 3.0 0.03 0.27 0.27 95 1011.0
20260509160251 47 138 1.0 3.0 0.04 0.27 0.27 95 1011.2
20260509155758 46 161 1.0 3.0 0.04 0.27 0.27 95 1011.1
20260509155228 46 188 1.0 3.0 0.05 0.27 0.27 95 1011.2
20260509154742 46 160 1.0 3.0 0.05 0.26 0.26 95 1011.1
20260509154234 46 147 1.0 2.0 0.05 0.26 0.26 95 1011.3
20260509153748 46 141 1.0 2.0 0.06 0.26 0.26 95 1011.4
20260509153240 46 160 0.0 2.0 0.07 0.26 0.26 95 1011.5
20260509152732 46 141 1.0 2.0 0.07 0.26 0.26 95 1011.5
20260509152244 46 139 1.0 2.0 0.07 0.25 0.25 95 1011.7
20260509151736 46 139 1.0 2.0 0.08 0.25 0.25 95 1011.9
20260509151230 46 180 1.0 2.0 0.08 0.24 0.24 95 1011.9
20260509150801 46 168 1.0 2.0 0.09 0.24 0.24 95 1012.0
20260509150254 45 168 1.0 2.0 0.08 0.23 0.23 94 1012.0
20260509145745 45 158 1.0 2.0 0.09 0.23 0.23 94 1011.9
20260509145238 45 183 1.0 2.0 0.08 0.22 0.22 94 1012.0
20260509144738 45 145 1.0 2.0 0.08 0.21 0.21 94 1012.0
20260509144233 45 200 1.0 2.0 0.08 0.21 0.21 94 1012.1
20260509143745 45 147 1.0 2.0 0.08 0.20 0.20 94 1011.9
20260509143239 45 198 1.0 3.0 0.07 0.19 0.19 94 1012.0
20260509142732 45 145 1.0 3.0 0.06 0.18 0.18 94 1011.9
20260509142245 45 147 0.0 0.0 0.07 0.18 0.18 94 1011.8
20260509141758 45 131 0.0 0.0 0.06 0.17 0.17 94 1011.7
20260509141229 45 193 0.0 1.0 0.05 0.16 0.16 94 1011.7
20260509140802 45 178 0.0 2.0 0.04 0.15 0.15 94 1011.6
20260509140233 45 195 0.0 0.0 0.04 0.15 0.15 94 1011.6
20260509135727 45 195 0.0 0.0 0.04 0.14 0.14 94 1011.5
20260509135237 45 195 0.0 0.0 0.04 0.14 0.14 94 1011.5
20260509134731 45 195 0.0 0.0 0.03 0.13 0.13 94 1011.7
20260509134245 45 191 0.0 0.0 0.03 0.13 0.13 94 1011.4
20260509133738 44 191 0.0 0.0 0.02 0.12 0.12 94 1011.5
20260509133253 44 194 0.0 0.0 0.02 0.12 0.12 94 1011.5
20260509132746 44 194 0.0 0.0 0.02 0.12 0.12 94 1011.7
20260509132238 44 194 0.0 0.0 0.02 0.11 0.11 94 1011.6
20260509131730 44 194 0.0 0.0 0.03 0.11 0.11 94 1011.6
20260509131243 44 194 0.0 0.0 0.03 0.11 0.11 94 1011.7
20260509130735 44 194 0.0 0.0 0.04 0.11 0.11 94 1011.8
20260509130246 44 194 0.0 0.0 0.04 0.11 0.11 94 1011.7
20260509125741 44 194 0.0 0.0 0.03 0.10 0.10 94 1011.8
20260509125235 44 194 0.0 1.0 0.04 0.10 0.10 93 1011.8
20260509124807 44 194 0.0 1.0 0.04 0.10 0.10 93 1011.8
20260509124238 44 194 0.0 2.0 0.05 0.10 0.10 93 1011.7
20260509123730 44 194 0.0 2.0 0.05 0.10 0.10 93 1011.9
20260509123242 44 194 1.0 2.0 0.05 0.10 0.10 93 1011.9
20260509122735 44 194 1.0 2.0 0.05 0.10 0.10 93 1011.9
20260509122244 44 194 1.0 2.0 0.05 0.09 0.09 93 1012.0
20260509121736 43 194 1.0 3.0 0.04 0.08 0.08 93 1012.1
20260509121308 43 199 2.0 3.0 0.04 0.08 0.08 93 1012.1
20260509120740 43 216 2.0 3.0 0.03 0.07 0.07 93 1012.0
20260509120232 43 182 1.0 2.0 0.03 0.07 0.07 93 1012.0